VICTUS HAZE PUMA

Last updated on Mon Jun 22 2026 00:02:08 GMT+0000 (Coordinated Universal Time)

1 69646U 26142A 26171.29528050 .00019950 00000+0 26102-3 0 9991 2 69646 97.4467 68.8240 0083850 248.7177 110.5108 15.54449809 137
UTC large
Height (km)
Speed (km/s)
/
Latitude / Longitude
Inclination (degrees)
Orbital Period (minutes)
Azimuth
Elevation
Range (km)
Doppler Factor

Next 0 passes for location: London (51.5072 / 0.1276)

No passes found over London.
VICTUS HAZE PUMA